This demonstration page uses our WeatherBlox Daily Observations layout. Learn more.

Left ArrowRight Arrow

39.12711, -84.51439

Hourly Observations for November 12, 2020

Temp ( °F °C ) Dew Point ( °F °C ) Humidity (%) Winds ( mph kmh ) Pressure ( in mb ) Visibility ( mi km ) Precip ( " mm )
12:53 am 00:53 Clear 38 3.3 33 0.6 83 83 Calm 30.15 1021 10 16 0.00 0.00
1:53 am 01:53 Clear 36 2.2 32 0 86 86 N 5 7 30.16 1021 10 16 0.00 0.00
2:53 am 02:53 Clear 36 2.2 32 0 86 86 Calm 30.17 1022 8 13 0.00 0.00
3:53 am 03:53 Clear 34 1.1 32 0 92 92 Calm 30.17 1022 7 11 0.00 0.00
4:53 am 04:53 Clear 34 1.1 30 -1.1 85 85 NE 6 9 30.17 1022 7 11 0.00 0.00
5:53 am 05:53 Clear 34 1.1 30 -1.1 85 85 NNE 6 9 30.19 1022 8 13 0.00 0.00
6:53 am 06:53 Clear 34 1.1 30 -1.1 85 85 NNE 6 9 30.20 1023 10 16 0.00 0.00
7:53 am 07:53 Sunny 34 1.1 31 -0.6 89 89 Calm 30.21 1023 10 16 0.00 0.00
8:53 am 08:53 Sunny 38 3.3 32 0 79 79 NE 5 7 30.21 1023 10 16 0.00 0.00
9:53 am 09:53 Sunny 42 5.6 35 1.7 76 76 ENE 8 13 30.21 1023 10 16 0.00 0.00
10:53 am 10:53 Sunny 45 7.2 35 1.7 68 68 E 7 11 30.18 1022 10 16 0.00 0.00
11:53 am 11:53 Sunny 49 9.4 35 1.7 59 59 NNE 9 15 30.16 1021 10 16 0.00 0.00
12:53 pm 12:53 Sunny 52 11.1 36 2.2 55 55 NE 8 13 30.12 1020 10 16 0.00 0.00
1:53 pm 13:53 Sunny 54 12.2 34 1.1 47 47 NE 5 7 30.10 1019 10 16 0.00 0.00
2:53 pm 14:53 Sunny 55 12.8 33 0.6 44 44 Calm 30.08 1019 10 16 0.00 0.00
3:53 pm 15:53 Sunny 57 13.9 33 0.6 41 41 N 3 6 30.07 1018 10 16 0.00 0.00
4:53 pm 16:53 Sunny 53 11.7 33 0.6 47 47 N 5 7 30.07 1018 10 16 0.00 0.00
5:53 pm 17:53 Clear 47 8.3 36 2.2 66 66 Calm 30.07 1018 10 16 0.00 0.00
6:53 pm 18:53 Clear 43 6.1 37 2.8 80 80 Calm 30.09 1019 10 16 0.00 0.00
7:53 pm 19:53 Clear 40 4.4 36 2.2 86 86 Calm 30.09 1019 10 16 0.00 0.00
8:53 pm 20:53 Clear 38 3.3 35 1.7 89 89 Calm 30.09 1019 10 16 0.00 0.00
9:53 pm 21:53 Clear 35 1.7 34 1.1 96 96 Calm 30.07 1018 10 16 0.00 0.00
10:53 pm 22:53 Clear 37 2.8 34 1.1 89 89 Calm 30.05 1018 10 16 0.00 0.00
11:08 pm 23:08 Clear with Mist and Fog 34 1.1 33 0.6 97 97 Calm 30.08 1018 2 3 0.00 0.00
11:17 pm 23:17 Clear with Mist and Fog 35 1.7 33 0.6 93 93 Calm 30.07 1018 4 6 0.00 0.00
11:53 pm 23:53 Clear 36 2.2 34 1.1 93 93 Calm 30.04 1017 10 16 0.00 0.00

Powered by AerisWeather